Flag for U.S.A. Weather past 2 weeks in Carson City, Nevada, U.S.A.

Now
47 °F

Sunny.


Feels Like: 46 °F
Forecast: 20 / 55 °F
Wind: 3 mph from North

Location: Reno Tahoe International Airport

Current Time: Mar 5, 2015 at 11:35:32 AM

Latest Report: Mar 5, 2015 at 10:55 AM


Visibility: 10 mi

Pressure: 30.40 "Hg

Humidity: 34%

Dew point: 20 °F

Location of Carson CityLocation

Historic Weather in Carson City — Graph

°F

Carson City temperature yesterday

Maximum temperature yesterday: 53 °F (at 1:55 PM)
Minimum temperature yesterday: 23 °F (at 5:55 AM)
Average temperature yesterday: 38 °F

Past Weeks' High & Low Weather Summary

 TemperatureHumidityPressure
High70 °F (Feb 18, 2:55 PM)100% (Feb 28, 2:55 AM)30.51 "Hg (Feb 28, 2:55 AM)
Low22 °F (Feb 23, 6:55 AM)6% (Feb 24, 2:55 PM)29.56 "Hg (Feb 27, 2:55 PM)
Average41 °F49%30.04 "Hg
* Reported Feb 18 9:55 AM — Mar 5 9:55 AM, Carson City, Weather by CustomWeather, © 2015

Note: Actual official high and low records may vary slightly from our data, if they occured in-between our weather recording intervals... More about our weather records

Advertising

Carson City weather history for previous 24 hours

 ConditionsComfort  
Time TempWeatherWind HumidityBarometerVisibility
9:55 AM
Thu, Mar 5
42 °FSunny.No wind41%30.43 "Hg10 mi
8:55 AM36 °FSunny.No wind52%30.43 "Hg10 mi
7:55 AM32 °FPassing clouds.No wind61%30.42 "Hg10 mi
6:55 AM25 °FPassing clouds.No wind75%30.41 "Hg10 mi
5:55 AM27 °FClear.No wind72%30.39 "Hg10 mi
4:55 AM27 °FClear.No wind72%30.36 "Hg10 mi
3:55 AM28 °FClear.No wind69%30.34 "Hg10 mi
2:55 AM30 °FClear.No wind64%30.33 "Hg10 mi
1:55 AM30 °FClear.No wind64%30.33 "Hg10 mi
12:55 AM33 °FClear.No wind56%30.33 "Hg10 mi
11:55 PM
Wed, Mar 4
34 °FClear.3 mph54%30.31 "Hg10 mi
10:55 PM36 °FClear.3 mph50%30.31 "Hg10 mi
9:55 PM38 °FClear.3 mph46%30.31 "Hg10 mi
8:55 PM42 °FClear.No wind36%30.29 "Hg10 mi
7:55 PM43 °FClear.6 mph34%30.27 "Hg10 mi
6:55 PM46 °FClear.6 mph31%30.24 "Hg10 mi
5:55 PM48 °FClear.7 mph25%30.22 "Hg10 mi
4:55 PM52 °FSunny.9 mph22%30.19 "Hg10 mi
3:55 PM53 °FPassing clouds.3 mph19%30.18 "Hg10 mi
2:55 PM53 °FPassing clouds.6 mph20%30.17 "Hg10 mi
1:55 PM53 °FPassing clouds.7 mph22%30.16 "Hg10 mi
12:55 PM50 °FPassing clouds.6 mph25%30.19 "Hg10 mi
11:55 AM47 °FPassing clouds.5 mph29%30.21 "Hg10 mi
Weather by CustomWeather, © 2015

See weather overviewHow to use our weather pages